Regional Weather Roundup
Issued by NWS Newport/Morehead, NC

Current Version | Previous Version | Graphics & Text | Print | Product List | Glossary Off
Versions: 1 2 3 4 5 6 7 8 9 10 11 12 13 14 15 16 17 18 19 20 21 22 23 24 25 26 27 28 29 30 31 32 33 34 35 36 37 38 39 40 41 42 43 44 45 46 47 48 49 50
000 ASUS42 KMHX 272313 RWRMHX WEATHER ROUNDUP FOR EASTERN NORTH CAROLINA NATIONAL WEATHER SERVICE NEWPORT/MOREHEAD CITY NC 700 PM EDT MON JUL 27 2015 NOTE: "FAIR" INDICATES FEW OR NO CLOUDS BELOW 12,000 FEET WITH NO SIGNIFICANT WEATHER AND/OR OBSTRUCTIONS TO VISIBILITY NCZ015>017-031-032-045>047-102-103-280000- NORTH COAST CITY SKY/WX TMP DP RH WIND PRES REMARKS EDENTON N/A 82 70 66 S9 29.99R ELIZABETH CITY CLOUDY 83 70 64 SE8 29.99R KITTY HAWK PTCLDY 82 68 63 SE8 29.99S MANTEO MOSUNNY 80 69 68 CALM 30.01R $$ NCZ045>047-081-094-103-104-280000- CENTRAL COAST CITY SKY/WX TMP DP RH WIND PRES REMARKS FRISCO PTSUNNY 83 70 64 SE7 30.00S SWANQUARTER N/A 82 N/A N/A SE5G10 29.97R $$ NCZ095-097-098-100-101-280000- SOUTHERN COAST CITY SKY/WX TMP DP RH WIND PRES REMARKS BEAUFORT PTSUNNY 82 72 71 SE6 29.98F CEDAR ISLAND N/A 82 N/A N/A SE6G13 30.03S JACKSONVILLE MOSUNNY 82 71 69 SE8 29.97S PINEY ISLAND MOCLDY N/A N/A N/A SE7 29.98F WILMINGTON MOSUNNY 82 72 71 SE10 29.97S $$ NCZ011>013-027>030-043-044-078>080-089-090>093-098-280000- COASTAL PLAIN CITY SKY/WX TMP DP RH WIND PRES REMARKS AHOSKIE PTSUNNY 82 71 69 SE3 29.98R CLINTON MOSUNNY 86 73 65 S3 29.95F ELIZABETHTOWN SUNNY 86 70 59 SE7 29.96S GOLDSBORO PTSUNNY 86 74 66 SE5 29.95S GREENVILLE MOSUNNY 86 72 62 SE6 29.99S HAVELOCK PTSUNNY 82 70 66 SE7 29.99S KENANSVILLE PTSUNNY 84 70 61 SE5 29.97S KINSTON PTSUNNY 86 72 62 SE9 29.98R NEW BERN PTSUNNY 83 69 62 S7 29.99R RICHLANDS MOSUNNY 84 66 54 SE7 29.98R ROCKY MOUNT PTSUNNY 87 70 56 S3 29.97R WASHINGTON MOSUNNY 82 71 68 SE8 29.99R WHITEVILLE SUNNY 84 74 70 E5 29.96R $$ AMZ130-135-150-152-154-156-158-170-250-252-270-ANZ085-086-088-633-658-670-280000- MARINE OBSERVATIONS STATION/POSITION TIME TEMP WIND PRES WAVE SWELL AIR SEA DIR/SP/G HT/PER HT/PER (UTC) (F) (DEG/KT/KT) (MB) (FT/S) (FT/S) CHESAPEAKE LIGHT 2200 80 150/ 17/ 18 1016.1 64 E VA BEACH 2250 80 81 150/ 8/ 10 1015.8 2/ 6 2/ 6 DUCK 2200 81 81 130/ 14/ 15 1014.8 2 E DUCK 2211 81 N/A 3/11 2/11 OREGON INLET 2200 82 85 120/ 8/ 11 1016.2 13E OREGON INLT 2300 80 N/A 3/11 2/11 HATTERAS CG 2200 82 83 140/ 6/ 7 1015.7 DIAMOND BUOY NOT AVBL CAPE LOOKOUT 2200 81 130/ 9/ 10 1015.1 BEAUFORT LAB 2200 82 81 120/ 9/ 12 1014.7 30 SE NEW RVR IN NOT AVBL 27 SE WRIGHTSVLE 2200 80 82 130/ 10/ 12 N/A 5 SE WRIGHTSVLE 2208 82 81 110/ 10/ 14 1014.8 225 S CAPE HAT 2250 80 82 190/ 4/ 6 1015.7 4/ 7 3/ 7 41 SE CHARLESTON 2250 84 84 70/ 12/ 12 1013.0 3/ 6 2/ 6 $$

USA.gov is the U.S. government's official web portal to all federal, state and local government web resources and services.